Regional Weather Roundup
Issued by NWS

Home | Current Version | Previous Version | Text Only | Print | Product List | Glossary Off
Versions: 1 2 3 4 5 6 7 8 9 10 11 12 13 14 15 16 17 18 19 20 21 22 23 24 25 26 27 28 29 30 31 32 33 34 35 36 37 38 39 40 41 42 43 44 45 46 47 48 49 50

133
ASUS45 KCYS 160710
RWRWY

WYOMING REGIONAL WEATHER ROUNDUP
NATIONAL WEATHER SERVICE CHEYENNE WY
1200 AM MST MON JAN 16 2017

NOTE:  "FAIR" INDICATES FEW OR NO CLOUDS BELOW 12,000 FEET
WITH NO SIGNIFICANT WEATHER AND/OR OBSTRUCTIONS TO VISIBILITY.

WYZ001-160800-
YELLOWSTONE NATIONAL PARK

CITY           SKY/WX    TMP DP  RH WIND       PRES   REMARKS
LK YELLOWSTONE   N/A    -13 -16  86 CALM      30.14S
W YELLOWSTONE  NOT AVBL

$$
WYZ002>013-054>058-071-098>099-160800-
NORTHERN WYOMING

CITY           SKY/WX    TMP DP  RH WIND       PRES   REMARKS
JACKSON        FAIR     -11 -15  84 N7        30.18R WCI -26
CODY           FAIR      10   4  76 CALM      30.10R
GREYBULL       FAIR     -13 -19  75 CALM      30.18R
WORLAND        FAIR      -9 -13  83 CALM      30.14S
SHERIDAN       FAIR      11   0  61 SW9       30.07S WCI  -2
BUFFALO        FAIR      28   1  31 NW9       30.06R WCI  19
GILLETTE       FAIR      15   9  76 N3        30.05R
HULETT         FAIR      18   3  53 MISG      30.05S
NEWCASTLE      PTSUNNY   23  14  68 N8        30.04S WCI  14

$$
WYZ014>020-022>026-101>103-160800-
CENTRAL WYOMING

CITY           SKY/WX    TMP DP  RH WIND       PRES   REMARKS
BIG PINEY      FAIR     -18 -23  77 E5        30.07S WCI -31
PINEDALE       FAIR     -22 -27  76 NW6       30.07F WCI -38
DUBOIS         NOT AVBL
LANDER         FAIR       7   2  80 CALM      30.09R
RIVERTON       FAIR      -5  -9  83 NE3       30.11R
CASPER         FAIR      16  13  88 W9        30.06R WCI   4
DOUGLAS        CLOUDY    25  18  74 NW8       30.05R WCI  16

$$
WYZ021-027>030-104>119-160800-
SOUTHERN WYOMING

CITY           SKY/WX    TMP DP  RH WIND       PRES   REMARKS
EVANSTON       FAIR       6   1  80 CALM      30.09R
ROCK SPRINGS   FAIR       1  -3  83 W10       30.08R WCI -15
RAWLINS        MOCLDY    10   5  80 N7        30.03S WCI  -1
LARAMIE        CLOUDY    18  16  92 N6        29.97S WCI  10
CHEYENNE       CLOUDY    32  17  54 N7        29.95F WCI  26
TORRINGTON     CLOUDY    32  27  81 NW5       29.99S WCI  27

$$




USA.gov is the U.S. government's official web portal to all federal, state and local government web resources and services.